TimePST,TemperatureF,Dew PointF,Humidity,Sea Level PressureIn,VisibilityMPH,Wind Direction,Wind SpeedMPH,Gust SpeedMPH,PrecipitationIn,Events,Conditions,WindDirDegrees,DateUTC
12:26 AM,44.6,42.8,93,30.23,8.0,Calm,Calm,-,N/A,,Overcast,0,2013-02-04 08:26:00
12:51 AM,44.6,42.8,93,30.23,5.0,Calm,Calm,-,N/A,,Overcast,0,2013-02-04 08:51:00
12:55 AM,44.1,42.1,93,30.23,5.0,Calm,Calm,-,N/A,,Overcast,0,2013-02-04 08:55:00
2:55 AM,44.1,42.1,93,30.23,5.0,Calm,Calm,-,N/A,,Overcast,0,2013-02-04 10:55:00
3:12 AM,44.6,42.8,93,30.20,4.0,East,4.6,-,N/A,,Overcast,80,2013-02-04 11:12:00
3:55 AM,44.1,42.1,93,30.18,7.0,SE,3.5,-,N/A,,Overcast,140,2013-02-04 11:55:00
4:55 AM,44.1,42.1,93,30.17,9.0,Calm,Calm,-,N/A,,Overcast,0,2013-02-04 12:55:00
5:55 AM,44.1,42.1,93,30.17,10.0,Calm,Calm,-,N/A,,Overcast,0,2013-02-04 13:55:00
6:55 AM,44.1,42.1,93,30.16,10.0,Calm,Calm,-,N/A,,Overcast,0,2013-02-04 14:55:00
7:29 AM,44.6,42.8,93,30.15,10.0,Calm,Calm,-,N/A,,Overcast,0,2013-02-04 15:29:00
7:44 AM,42.8,42.8,100,30.15,10.0,Calm,Calm,-,N/A,,Overcast,0,2013-02-04 15:44:00
7:55 AM,43.0,41.0,93,30.16,10.0,Calm,Calm,-,N/A,,Overcast,0,2013-02-04 15:55:00
8:40 AM,44.6,41.0,87,30.14,10.0,ESE,4.6,-,N/A,,Overcast,120,2013-02-04 16:40:00
8:55 AM,44.1,42.1,93,30.14,10.0,ESE,3.5,-,N/A,,Overcast,120,2013-02-04 16:55:00
9:55 AM,45.0,42.1,90,30.14,10.0,Calm,Calm,-,N/A,,Partly Cloudy,0,2013-02-04 17:55:00
10:55 AM,46.9,43.0,86,30.13,10.0,ENE,3.5,-,N/A,,Clear,60,2013-02-04 18:55:00
11:55 AM,48.0,42.1,80,30.12,10.0,North,3.5,-,N/A,,Overcast,350,2013-02-04 19:55:00
12:55 PM,50.0,41.0,71,30.08,10.0,Calm,Calm,-,N/A,,Mostly Cloudy,0,2013-02-04 20:55:00
1:38 PM,50.0,41.0,71,30.06,10.0,Calm,Calm,-,N/A,,Mostly Cloudy,0,2013-02-04 21:38:00
1:55 PM,50.0,42.1,74,30.05,10.0,Calm,Calm,-,N/A,,Overcast,0,2013-02-04 21:55:00
2:36 PM,48.2,41.0,76,30.03,10.0,North,5.8,-,N/A,,Scattered Clouds,350,2013-02-04 22:36:00
2:55 PM,48.0,42.1,80,30.04,10.0,North,5.8,-,N/A,,Clear,350,2013-02-04 22:55:00
3:14 PM,48.2,42.8,82,30.03,10.0,North,3.5,-,N/A,,Mostly Cloudy,350,2013-02-04 23:14:00
3:55 PM,48.0,42.1,80,30.04,10.0,SW,4.6,-,N/A,,Overcast,230,2013-02-04 23:55:00
4:55 PM,48.0,42.1,80,29.99,10.0,Calm,Calm,-,N/A,,Overcast,0,2013-02-05 00:55:00
5:41 PM,46.4,42.8,87,29.95,10.0,ESE,5.8,-,N/A,,Scattered Clouds,110,2013-02-05 01:41:00
5:55 PM,46.9,41.0,80,29.94,10.0,SE,5.8,-,N/A,,Partly Cloudy,130,2013-02-05 01:55:00
6:18 PM,46.4,42.8,87,29.97,10.0,West,8.1,-,N/A,,Mostly Cloudy,260,2013-02-05 02:18:00
6:55 PM,46.9,41.0,80,29.97,10.0,SW,5.8,-,N/A,,Overcast,230,2013-02-05 02:55:00
7:55 PM,46.9,42.1,83,29.95,10.0,SW,10.4,-,N/A,,Overcast,230,2013-02-05 03:55:00
8:55 PM,48.0,41.0,77,29.94,10.0,South,5.8,-,N/A,,Overcast,190,2013-02-05 04:55:00
9:55 PM,48.0,41.0,77,29.93,10.0,SSW,9.2,26.5,N/A,,Overcast,200,2013-02-05 05:55:00
10:22 PM,48.2,41.0,76,29.93,10.0,SSW,12.7,23.0,N/A,,Overcast,200,2013-02-05 06:22:00
10:51 PM,48.2,41.0,76,29.93,10.0,SSW,10.4,20.7,0.00,Rain,Light Rain,200,2013-02-05 06:51:00
10:55 PM,48.0,42.1,80,29.93,10.0,SSW,10.4,20.7,0.00,Rain,Light Rain,210,2013-02-05 06:55:00
11:33 PM,46.4,39.2,76,29.92,10.0,South,11.5,20.7,0.00,,Overcast,180,2013-02-05 07:33:00
11:52 PM,46.4,39.2,76,29.92,10.0,South,12.7,25.3,0.00,,Overcast,190,2013-02-05 07:52:00
11:55 PM,46.9,39.9,77,29.92,10.0,South,12.7,19.6,0.00,,Overcast,190,2013-02-05 07:55:00